Retour au catalogue

STARLINK-4002

ActifCommunicationsVLEO
NORAD 52612·PAYLOAD·🇺🇸 United States

Lancé May 14, 2022 depuis Cape Canaveral Space Force Station

Loading…

Prochains Passages (prochaines 24 heures)

TLE

FraisSource: CelesTrak SupGP

Époque: Sep 14, 2026, 20:51 UTC

1 52612C 22052Q   26257.86923611 -.00025545  00000+0 -75464-3 0  2573
2 52612  53.1575 141.7024 0001244  81.2149  82.6217 15.34407321    16

Suivez STARLINK-4002 en temps réel avec AllMySat

Download on the App Store